Change the Weather History Date:

Friday, July 5, 2013

  Actual Average Record
Temperature  
Mean Temperature 75 °F 76 °F  
Max Temperature 87 °F 84 °F 103 °F (2012)
Min Temperature 63 °F 67 °F 46 °F (1972)
Degree Days  
Heating Degree Days 0 0  
Month to date heating degree days 0 0  
Since 1 June heating degree days 36 31  
Since 1 July heating degree days 0 0  
Cooling Degree Days 10 11  
Month to date cooling degree days 23 53  
Year to date cooling degree days 310 337  
Since 1 June cooling degree days 204 263  
Growing Degree Days 25 (Base 50)    
Moisture  
Dew Point 59 °F    
Average Humidity 56    
Maximum Humidity 81    
Minimum Humidity 27    
Precipitation  
Precipitation 0.00 in 0.13 in 1.18 in (1971)
Month to date precipitation 0.07 0.56  
Year to date precipitation 20.94 19.11  
Sea Level Pressure  
Sea Level Pressure 30.04 in    
Wind  
Wind Speed 6 mph (SSW)    
Max Wind Speed 14 mph    
Max Gust Speed 21 mph    
Visibility 9 miles    
Events      
T = Trace of Precipitation, MM = Missing Value Source: NWS Daily Summary

Daily Weather History Graph

Daily Weather History Graph

Search for Another Location

Airport or City:

Trip Planner

Search our weather history database for the weather conditions in past years. The results will help you decide how hot, cold, wet, or windy it might be!

Date:

Astronomy

Jul. 05, 2013 Rise Set
Actual Time 5:22 AM CDT 8:28 PM CDT
Civil Twilight 4:48 AM CDT 9:02 PM CDT
Nautical Twilight 4:05 AM CDT 9:45 PM CDT
Astronomical Twilight 3:13 AM CDT 10:37 PM CDT
Moon 3:22 AM CDT (7/5) 6:22 PM CDT (7/5)
Length of Visible Light 16h 14m
Length of Day
15h 06m
Waning Crescent, 6% of the Moon is Illuminated
Jul 5
Waning Crescent
Jul 8
New
Jul 15
First Quarter
Jul 22
Full
Jul 29
Last Quarter

Hourly Weather History & Observations

Time (CDT) Temp. Heat Index Dew Point Humidity Pressure Visibility Wind Dir Wind Speed Gust Speed Precip Events Conditions
12:51 AM 71.1 °F - 59.0 °F 66% 30.04 in 7.0 mi South 3.5 mph - N/A   Mostly Cloudy
1:51 AM 69.1 °F - 59.0 °F 70% 30.03 in 8.0 mi SSW 3.5 mph - N/A   Mostly Cloudy
2:51 AM 69.1 °F - 59.0 °F 70% 30.03 in 8.0 mi South 4.6 mph - N/A   Clear
3:51 AM 66.0 °F - 57.9 °F 75% 30.04 in 8.0 mi Calm Calm - N/A   Clear
4:51 AM 66.0 °F - 59.0 °F 78% 30.04 in 8.0 mi South 5.8 mph - N/A   Partly Cloudy
5:51 AM 64.9 °F - 59.0 °F 81% 30.06 in 8.0 mi South 4.6 mph - N/A   Partly Cloudy
6:51 AM 66.9 °F - 59.0 °F 76% 30.06 in 9.0 mi SSW 4.6 mph - N/A   Partly Cloudy
7:51 AM 71.1 °F - 62.1 °F 73% 30.07 in 9.0 mi WSW 6.9 mph - N/A   Partly Cloudy
8:51 AM 73.9 °F - 64.0 °F 71% 30.08 in 8.0 mi West 10.4 mph - N/A   Partly Cloudy
9:51 AM 77.0 °F - 63.0 °F 62% 30.07 in 10.0 mi SW 5.8 mph - N/A   Partly Cloudy
10:51 AM 80.1 °F 80.6 °F 57.9 °F 47% 30.07 in 10.0 mi SW 3.5 mph - N/A   Scattered Clouds
11:51 AM 82.9 °F 82.0 °F 55.0 °F 38% 30.06 in 10.0 mi Calm Calm - N/A   Scattered Clouds
12:51 PM 84.0 °F 82.9 °F 55.0 °F 37% 30.05 in 10.0 mi SSW 5.8 mph - N/A   Partly Cloudy
1:51 PM 84.0 °F 82.9 °F 55.0 °F 37% 30.04 in 10.0 mi Variable 3.5 mph 17.3 mph N/A   Scattered Clouds
2:51 PM 84.0 °F 82.9 °F 55.0 °F 37% 30.02 in 10.0 mi SSE 9.2 mph - N/A   Scattered Clouds
3:51 PM 86.0 °F 84.9 °F 57.0 °F 37% 30.01 in 10.0 mi SW 6.9 mph - N/A   Scattered Clouds
4:51 PM 86.0 °F 85.7 °F 60.1 °F 41% 30.00 in 10.0 mi South 10.4 mph 17.3 mph N/A   Mostly Cloudy
5:51 PM 84.0 °F 84.4 °F 61.0 °F 46% 30.00 in 10.0 mi SSW 6.9 mph - N/A   Scattered Clouds
6:51 PM 82.0 °F 83.0 °F 62.1 °F 51% 29.99 in 10.0 mi South 12.7 mph - N/A   Scattered Clouds
7:51 PM 81.0 °F 81.7 °F 61.0 °F 50% 30.00 in 10.0 mi South 8.1 mph - N/A   Scattered Clouds
8:51 PM 80.1 °F 81.1 °F 61.0 °F 52% 30.01 in 10.0 mi SSW 9.2 mph - N/A   Partly Cloudy
9:51 PM 78.1 °F - 61.0 °F 56% 30.02 in 10.0 mi SSW 6.9 mph - N/A   Scattered Clouds
10:51 PM 77.0 °F - 61.0 °F 58% 30.03 in 10.0 mi SSW 3.5 mph - N/A   Mostly Cloudy
11:51 PM 75.9 °F - 62.1 °F 62% 30.03 in 10.0 mi South 4.6 mph - N/A   Overcast